937  
ASUS44 KHUN 211110  
RWRHUN  
 
WEATHER ROUNDUP FOR THE TENNESSEE VALLEY  
NATIONAL WEATHER SERVICE HUNTSVILLE AL  
600 AM CDT SAT APR 21 2018  
 
ALZ001>004-211200-  
NORTHWEST ALABAMA  
 
CITY SKY/WX TMP DP RH WIND PRES REMARKS
 
SHOALS AIRPORT FAIR 43 39 86 CALM 30.28R  

 
 
ALZ005>007-016-211200-  
NORTH CENTRAL ALABAMA  
 
CITY SKY/WX TMP DP RH WIND PRES REMARKS
 
DECATUR AP FAIR 39 38 96 E5 30.28S  
HUNTSVILLE AP FAIR 44 39 82 E6 30.28R  
MERIDIANVILLE CLEAR 37 36 96 CALM 30.29R  
REDSTONE ARSN FAIR 44 37 77 CALM 30.27S  
VINEMONT AP FAIR 45 31 58 CALM 30.28S  

 
 
ALZ008>010-211200-  
NORTHEAST ALABAMA  
 
CITY SKY/WX TMP DP RH WIND PRES REMARKS
 
ALBERTVILLE FAIR 45 36 70 E5 30.28R  
FORT PAYNE FAIR 36 34 93 CALM 30.29S  
SCOTTSBORO AP FAIR 37 37 100 CALM 30.31R  

 
 
TNZ076-096-097-211200-  
SOUTHEASTERN MIDDLE TENNESSEE  
 
CITY SKY/WX TMP DP RH WIND PRES REMARKS
 
TULLAHOMA CLEAR 37 32 81 CALM 30.28R  
WINCHESTER CLEAR 39 34 81 SE3 30.28S  

 
   
..SURROUNDING SITES
 
 
 
CITY SKY/WX TMP DP RH WIND PRES REMARKS
 
ATLANTA FAIR 47 36 65 E7 30.31R  
ANNISTON FAIR 40 37 89 CALM 30.29R  
BIRMINGHAM FAIR 47 36 65 NE3 30.28R  
CHATTANOOGA FAIR 40 37 89 CALM 30.34R  
CORINTH MIX PCPN 39 37 93 CALM 30.25R  
DALTON FAIR 36 36 100 CALM 30.35R  
GADSDEN FAIR 37 37 100 CALM 30.30R  
GOLDEN TRNGL FAIR 49 38 65 E8 30.23R  
HALEYVILLE FAIR 42 37 82 E3 30.27R  
JACKSON TN FAIR 48 32 53 E3 30.26R  
MEMPHIS FAIR 49 34 56 E3 30.22S  
NASHVILLE FAIR 40 33 76 CALM 30.31R  
OXFORD MS FAIR 48 34 57 E5 30.23S  
ROME FAIR 37 36 96 NE3 30.32R  
SAVANNAH CLEAR 39 37 93 CALM 30.26R  
SELMER PTCLDY 45 34 65 E5 30.25S  
TUPELO FAIR N/A N/A N/A CALM 30.24R  
TUSCALOOSA FAIR 45 41 86 CALM 30.24R  

 
   
..GULF COAST WEATHER
 
 
 
CITY SKY/WX TMP DP RH WIND PRES REMARKS
 
GULFPORT FAIR 52 49 89 CALM 30.12S  
PASCAGOULA FAIR 49 46 90 NE3 30.13S  
MOBILE FAIR 53 47 79 E3 30.15S  
GULF SHORES PTSUNNY 58 54 87 N10G17 30.14S  
PENSACOLA MOCLDY 65 57 75 E16 30.15  
DESTIN CLOUDY 64 51 62 E7 30.18R  
PANAMA CITY MOCLDY 60 54 82 E3 30.18R  
APPALACHICOLA CLOUDY 65 61 87 E7 30.16S  

 
 
 
 
CLICK HERE TO GO TO PREVIOUS BULLETINS.

The Nexlab AL Page
The Nexlab TN Page Main Text Page